1484863201.02,16210,4.5,74146.5,-9.77,-38.97,-39.47,0,*51
1484863202.24,16211,4.5,74144.3,-9.77,-38.97,-39.35,0,*55
1484863203.52,16212,4.56,74146.0,-9.77,-38.91,-39.29,0,*5D
1484863204.81,16213,4.56,74144.3,-9.77,-38.79,-39.29,0,*5A
1484863206.03,16214,4.5,74142.0,-9.77,-38.97,-39.35,0,*50
1484863207.26,16215,4.5,74142.8,-9.77,-39.09,-39.35,0,*57
1484863208.51,16216,4.56,74146.5,-9.77,-38.91,-39.35,0,*54
1484863209.74,16217,4.56,74144.5,-9.77,-39.09,-39.35,0,*55
1484863211.0,16218,4.56,74146.0,-9.77,-38.79,-39.09,0,*53
1484863212.24,16219,4.56,74146.5,-9.79,-38.79,-39.09,0,*5C
1484863213.52,16220,4.5,74142.0,-9.77,-38.91,-39.15,0,*53
1484863214.77,16221,4.5,74144.8,-9.77,-38.97,-39.29,0,*5B
1484863216.01,16222,4.5,74142.0,-9.79,-38.79,-39.09,0,*54
1484863217.27,16223,4.56,74144.8,-9.77,-38.79,-38.97,0,*5D
1484863218.53,16224,4.5,74142.3,-9.77,-38.91,-39.09,0,*5A
1484863219.79,16225,4.56,74144.3,-9.77,-38.79,-38.97,0,*5B
1484863221.05,16226,4.56,74146.5,-9.77,-38.79,-39.09,0,*5E
1484863222.34,16227,4.56,74150.5,-9.77,-38.79,-39.29,0,*5D
1484863223.59,16228,4.56,74144.5,-9.75,-38.67,-38.91,0,*5D
1484863224.79,16229,4.56,74144.3,-9.75,-38.61,-38.85,0,*5F
1484863226.02,16230,4.56,74150.3,-9.75,-38.85,-39.23,0,*50
1484863227.3,16231,4.56,74148.5,-9.73,-38.91,-39.23,0,*52
1484863228.58,16232,4.5,74146.8,-9.77,-38.91,-39.15,0,*50
1484863229.84,16233,4.5,74144.0,-9.77,-38.91,-39.09,0,*5C
1484863231.09,16234,4.56,74146.5,-9.77,-38.97,-39.29,0,*5F
1484863232.33,16235,4.5,74146.5,-9.77,-39.09,-39.35,0,*55
1484863233.61,16236,4.5,74146.8,-9.77,-38.91,-39.29,0,*5B
1484863234.83,16237,4.56,74148.3,-9.75,-38.85,-39.03,0,*55
1484863236.09,16238,4.5,74144.0,-9.73,-38.61,-38.67,0,*55
1484863237.34,16239,4.56,74146.5,-9.75,-38.67,-38.91,0,*5D
1484863238.56,16240,4.56,74146.3,-9.75,-38.73,-39.03,0,*5C
1484863239.77,16241,4.5,74144.3,-9.75,-38.85,-39.09,0,*5E
1484863241.02,16242,4.5,74144.8,-9.75,-39.03,-39.23,0,*5A
1484863242.27,16243,4.5,74142.5,-9.75,-38.91,-39.29,0,*5B
1484863243.5,16244,4.56,74146.8,-9.75,-38.73,-39.03,0,*58
1484863244.75,16245,4.56,74148.8,-9.75,-38.91,-39.29,0,*5D
1484863246.02,16246,4.56,74150.3,-9.73,-39.03,-39.41,0,*5C
1484863247.25,16247,4.5,74144.0,-9.75,-38.73,-38.91,0,*51
1484863248.47,16248,4.5,74142.3,-9.75,-38.73,-39.03,0,*54
1484863249.68,16249,4.5,74146.3,-9.75,-38.85,-39.09,0,*56
1484863250.89,16250,4.56,74150.5,-9.75,-38.85,-39.09,0,*5E
1484863252.12,16251,4.56,74146.8,-9.75,-38.85,-39.03,0,*55
1484863253.38,16252,4.56,74144.5,-9.75,-38.49,-38.67,0,*55
1484863254.61,16253,4.5,74142.3,-9.75,-38.43,-38.49,0,*52
1484863255.85,16254,4.56,74144.8,-9.73,-38.73,-39.23,0,*5D
1484863257.08,16255,4.56,74144.5,-9.75,-38.85,-39.03,0,*51
1484863258.34,16256,4.56,74146.0,-9.73,-38.85,-39.23,0,*56
1484863259.59,16257,4.5,74146.0,-9.75,-38.91,-39.23,0,*54
1484863260.79,16258,4.56,74146.5,-9.75,-38.73,-38.85,0,*5A
1484863262.04,16259,4.5,74142.5,-9.73,-38.73,-39.03,0,*52
1484863263.29,16260,4.5,74140.8,-9.73,-38.61,-38.67,0,*58
1484863264.55,16261,4.56,74146.5,-9.73,-38.29,-38.61,0,*53
1484863265.82,16262,4.56,74146.8,-9.73,-38.67,-38.91,0,*55
1484863267.08,16263,4.56,74148.0,-9.73,-38.49,-38.85,0,*5D
1484863268.28,16264,4.56,74148.0,-9.71,-38.55,-38.61,0,*5F
1484863269.53,16265,4.56,74148.3,-9.71,-38.79,-39.03,0,*55
1484863270.78,16266,4.5,74144.8,-9.71,-38.79,-39.03,0,*56
1484863272.04,16267,4.56,74148.5,-9.73,-38.85,-39.23,0,*54
1484863273.29,16268,4.5,74144.0,-9.73,-39.09,-39.29,0,*54
1484863274.57,16269,4.56,74146.8,-9.73,-38.91,-39.41,0,*5B
1484863275.84,16270,4.5,74146.5,-9.73,-39.03,-39.29,0,*57
1484863277.09,16271,4.56,74148.0,-9.73,-38.67,-38.85,0,*52
1484863278.3,16272,4.5,74142.3,-9.71,-38.43,-38.55,0,*58
1484863279.5,16273,4.56,74144.0,-9.71,-38.55,-38.85,0,*53
1484863280.75,16274,4.56,74146.0,-9.71,-38.79,-39.15,0,*52
1484863282.01,16275,4.56,74144.3,-9.67,-38.79,-39.15,0,*54
1484863283.23,16276,4.56,74146.5,-9.67,-38.67,-38.61,0,*5A
1484863284.46,16277,4.5,74140.3,-9.71,-38.55,-38.79,0,*54
1484863285.68,16278,4.56,74146.5,-9.71,-38.55,-38.79,0,*5B
1484863286.9,16279,4.56,74148.3,-9.67,-38.67,-38.97,0,*5C
1484863288.11,16280,4.56,74146.8,-9.67,-38.43,-38.43,0,*55
1484863289.31,16281,4.5,74144.8,-9.67,-38.55,-38.55,0,*54
1484863290.52,16282,4.56,74148.0,-9.67,-38.43,-38.55,0,*50
1484863291.74,16283,4.56,74144.5,-9.67,-38.23,-38.55,0,*57
1484863292.96,16284,4.56,74148.0,-9.67,-38.67,-38.97,0,*5E
1484863294.16,16285,4.56,74144.5,-9.67,-38.61,-38.85,0,*5A
1484863295.39,16286,4.56,74146.0,-9.67,-38.85,-39.03,0,*5C
1484863296.62,16287,4.5,74144.0,-9.67,-38.23,-38.43,0,*54
1484863297.84,16288,4.5,74144.8,-9.67,-38.43,-38.79,0,*54
1484863299.07,16289,4.56,74150.3,-9.63,-38.55,-38.79,0,*56
1484863300.29,16290,4.56,74146.8,-9.65,-38.55,-38.73,0,*52
1484863301.55,16291,4.56,74146.5,-9.65,-38.79,-39.09,0,*51
1484863302.78,16292,4.56,74146.8,-9.63,-38.55,-38.79,0,*5C
1484863304.01,16293,4.5,74146.8,-9.63,-38.55,-38.79,0,*5D
1484863305.23,16294,4.56,74144.0,-9.65,-38.35,-38.55,0,*54
1484863306.49,16295,4.56,74150.5,-9.65,-38.61,-38.91,0,*5C
1484863307.74,16296,4.56,74148.8,-9.65,-38.73,-38.91,0,*5C
1484863308.93,16297,4.56,74144.5,-9.63,-38.73,-38.97,0,*5D
1484863310.19,16298,4.56,74150.3,-9.65,-38.55,-38.79,0,*50
1484863311.39,16299,4.56,74150.5,-9.63,-38.61,-38.97,0,*50
1484863312.64,16300,4.5,74146.3,-9.65,-38.97,-39.15,0,*55
1484863313.91,16301,4.56,74150.3,-9.65,-38.91,-39.15,0,*52
1484863315.17,16302,4.56,74146.8,-9.65,-38.55,-38.79,0,*52
1484863316.42,16303,4.56,74144.3,-9.65,-38.73,-38.79,0,*57
1484863317.67,16304,4.5,74140.8,-9.63,-38.79,-39.15,0,*57
1484863318.9,16305,4.5,74142.0,-9.63,-38.91,-39.09,0,*5D
1484863320.12,16306,4.56,74146.3,-9.63,-38.73,-38.79,0,*54
1484863321.33,16307,4.56,74146.8,-9.63,-38.61,-39.09,0,*50
1484863322.52,16308,4.56,74144.0,-9.63,-38.73,-38.73,0,*50
1484863323.75,16309,4.56,74144.5,-9.63,-38.79,-38.97,0,*51
1484863324.98,16310,4.56,74148.3,-9.63,-38.55,-38.79,0,*57
1484863326.2,16311,4.56,74148.5,-9.63,-38.55,-38.79,0,*56
1484863327.44,16312,4.56,74144.8,-9.63,-38.49,-38.55,0,*56
1484863328.67,16313,4.56,74150.8,-9.63,-38.61,-38.79,0,*53
1484863329.92,16314,4.56,74150.5,-9.61,-38.73,-39.03,0,*59
1484863331.14,16315,4.56,74152.3,-9.59,-38.55,-38.91,0,*5D
1484863332.42,16316,4.56,74154.8,-9.61,-38.67,-39.03,0,*5E
1484863333.67,16317,4.56,74150.8,-9.61,-38.73,-39.03,0,*5A
1484863334.92,16318,4.5,74146.5,-9.61,-38.91,-39.09,0,*53
1484863336.18,16319,4.56,74150.0,-9.61,-38.67,-38.85,0,*5E
1484863337.42,16320,4.56,74146.5,-9.61,-38.67,-38.73,0,*5D
1484863338.62,16321,4.56,74144.5,-9.59,-38.55,-38.73,0,*56
1484863339.85,16322,4.56,74150.8,-9.61,-38.55,-38.73,0,*5E
1484863341.07,16323,4.56,74144.0,-9.61,-38.55,-38.73,0,*5F
1484863342.31,16324,4.56,74150.0,-9.61,-38.85,-39.09,0,*59
1484863343.56,16325,4.56,74146.0,-9.61,-38.67,-38.85,0,*51
1484863344.84,16326,4.56,74144.8,-9.61,-38.67,-39.03,0,*5D
1484863346.03,16327,4.56,74146.8,-9.63,-38.73,-38.97,0,*57
1484863347.31,16328,4.56,74148.3,-9.61,-38.67,-38.91,0,*59
1484863348.57,16329,4.56,74146.8,-9.61,-38.43,-38.67,0,*57
1484863349.82,16330,4.56,74146.8,-9.59,-38.67,-38.91,0,*5B
1484863351.07,16331,4.5,74144.0,-9.61,-38.73,-39.03,0,*5E
1484863352.32,16332,4.56,74146.0,-9.59,-38.67,-38.91,0,*59
1484863353.54,16333,4.56,74148.3,-9.61,-38.55,-38.73,0,*5E
1484863354.79,16334,4.56,74144.8,-9.61,-38.73,-39.23,0,*59
1484863356.04,16335,4.56,74146.8,-9.61,-38.73,-38.91,0,*50
1484863357.29,16336,4.56,74148.3,-9.59,-38.67,-38.91,0,*5D
1484863358.54,16337,4.56,74144.5,-9.59,-38.67,-38.91,0,*5C
1484863359.79,16338,4.56,74148.8,-9.59,-38.67,-38.91,0,*53
1484863361.04,16339,4.56,74150.0,-9.59,-38.67,-38.91,0,*52
1484863362.29,16340,4.56,74144.0,-9.59,-38.67,-39.03,0,*56
1484863363.52,16341,4.56,74150.3,-9.59,-38.67,-38.85,0,*58
1484863364.79,16342,4.56,74144.3,-9.61,-38.67,-39.03,0,*5F
1484863365.99,16343,4.56,74144.5,-9.59,-38.73,-39.09,0,*5A
1484863367.27,16344,4.56,74146.8,-9.61,-38.91,-39.23,0,*52
1484863368.5,16345,4.56,74146.5,-9.59,-38.85,-39.23,0,*5D
1484863369.71,16346,4.56,74146.8,-9.59,-38.85,-39.09,0,*56
1484863370.95,16347,4.56,74150.8,-9.59,-38.67,-39.03,0,*51
1484863372.2,16348,4.56,74150.3,-9.59,-38.67,-38.91,0,*54
1484863373.48,16349,4.56,74150.0,-9.61,-38.67,-38.91,0,*5E
1484863374.68,16350,4.56,74144.5,-9.59,-38.55,-38.73,0,*50
1484863375.91,16351,4.56,74146.5,-9.59,-38.49,-38.73,0,*5C
1484863377.13,16352,4.56,74144.3,-9.59,-38.73,-39.03,0,*50
1484863378.36,16353,4.56,74146.5,-9.59,-38.73,-38.91,0,*5B
1484863379.57,16354,4.56,74148.0,-9.59,-38.85,-39.09,0,*55
1484863380.78,16355,4.56,74144.8,-9.59,-38.67,-38.73,0,*54
1484863382.03,16356,4.56,74144.8,-9.59,-38.67,-39.03,0,*51
1484863383.28,16357,4.56,74144.3,-9.59,-38.67,-39.03,0,*50
1484863384.53,16358,4.56,74150.3,-9.59,-38.67,-38.91,0,*55
1484863385.76,16359,4.56,74144.0,-9.59,-38.85,-39.23,0,*50
1484863386.98,16360,4.56,74144.0,-9.59,-38.73,-39.03,0,*51
1484863388.23,16361,4.56,74146.5,-9.59,-38.67,-38.91,0,*5F
1484863389.48,16362,4.56,74144.8,-9.59,-38.91,-39.29,0,*57
1484863390.71,16363,4.56,74144.8,-9.59,-38.85,-39.23,0,*59
1484863391.96,16364,4.56,74146.5,-9.59,-38.91,-39.23,0,*5B
1484863393.18,16365,4.56,74146.5,-9.59,-38.67,-39.09,0,*5B
1484863394.43,16366,4.56,74148.3,-9.57,-38.67,-38.97,0,*50
1484863395.68,16367,4.56,74146.5,-9.59,-39.03,-39.41,0,*56
1484863396.96,16368,4.56,74146.8,-9.57,-38.79,-39.23,0,*5F
1484863398.23,16369,4.56,74146.3,-9.57,-38.79,-39.23,0,*5E
1484863399.46,16370,4.56,74148.3,-9.59,-38.85,-39.23,0,*5B
1484863400.74,16371,4.56,74144.8,-9.61,-38.91,-39.23,0,*54
1484863402.01,16372,4.56,74148.0,-9.61,-39.23,-39.41,0,*5B
1484863403.26,16373,4.56,74148.0,-9.59,-38.67,-38.91,0,*5C
1484863404.54,16374,4.56,74148.0,-9.61,-38.91,-39.23,0,*51
1484863405.79,16375,4.56,74146.8,-9.59,-38.91,-39.23,0,*5B
1484863407.04,16376,4.56,74148.0,-9.59,-38.67,-39.03,0,*53
1484863408.28,16377,4.5,74142.3,-9.59,-38.91,-39.23,0,*59
1484863409.53,16378,4.56,74144.3,-9.59,-38.67,-38.91,0,*57
1484863410.78,16379,4.56,74146.8,-9.59,-38.91,-39.23,0,*57
1484863411.99,16380,4.56,74148.5,-9.59,-38.73,-39.09,0,*55
1484863413.2,16381,4.56,74148.8,-9.59,-38.85,-39.09,0,*5D
1484863414.47,16382,4.56,74148.5,-9.57,-38.67,-39.03,0,*56
1484863415.72,16383,4.56,74146.5,-9.57,-38.85,-39.15,0,*5C
1484863416.98,16384,4.56,74146.3,-9.57,-38.79,-38.97,0,*53
1484863418.22,16385,4.56,74150.0,-9.57,-38.97,-39.15,0,*59
1484863419.48,16386,4.56,74150.3,-9.57,-38.85,-39.15,0,*59
1484863420.74,16387,4.56,74148.3,-9.57,-38.85,-39.03,0,*5F
1484863421.99,16388,4.56,74148.5,-9.57,-38.85,-39.15,0,*57
1484863423.24,16389,4.56,74146.3,-9.57,-39.03,-39.35,0,*5B
1484863424.49,16390,4.56,74144.5,-9.57,-38.79,-38.97,0,*56
1484863425.74,16391,4.56,74148.0,-9.57,-38.67,-38.97,0,*58
1484863426.96,16392,4.56,74150.0,-9.59,-38.73,-39.23,0,*5E
1484863428.21,16393,4.56,74148.8,-9.59,-38.67,-39.03,0,*58
1484863429.48,16394,4.56,74150.8,-9.57,-38.79,-39.03,0,*5E
1484863430.76,16395,4.56,74150.0,-9.57,-38.79,-39.15,0,*58
1484863432.04,16396,4.56,74146.5,-9.57,-38.79,-39.15,0,*5B
1484863433.32,16397,4.56,74146.8,-9.57,-38.79,-39.15,0,*5A
1484863434.6,16398,4.56,74146.5,-9.57,-38.79,-39.03,0,*52
1484863435.88,16399,4.56,74146.0,-9.57,-38.79,-39.15,0,*54
1484863437.13,16400,4.56,74150.3,-9.57,-38.61,-39.03,0,*5D
1484863438.36,16401,4.56,74144.8,-9.57,-38.61,-38.85,0,*53
1484863439.61,16402,4.56,74146.8,-9.57,-38.67,-38.85,0,*56
1484863440.88,16403,4.56,74148.3,-9.57,-38.67,-39.03,0,*58
1484863442.13,16404,4.56,74150.8,-9.57,-38.67,-38.97,0,*53
1484863443.41,16405,4.56,74144.8,-9.57,-38.79,-39.03,0,*51
1484863444.68,16406,4.56,74146.3,-9.57,-38.79,-39.03,0,*52
1484863445.96,16407,4.56,74148.5,-9.57,-38.79,-39.03,0,*53
1484863447.22,16408,4.56,74148.8,-9.57,-38.85,-39.15,0,*58
1484863448.47,16409,4.56,74146.8,-9.57,-38.85,-39.23,0,*5C
1484863449.7,16410,4.56,74148.3,-9.57,-38.61,-38.85,0,*53
1484863450.97,16411,4.56,74150.5,-9.57,-38.67,-39.03,0,*5B
1484863452.22,16412,4.56,74148.0,-9.57,-39.03,-39.35,0,*5E
1484863453.46,16413,4.56,74142.0,-9.57,-38.67,-38.97,0,*55
1484863454.68,16414,4.56,74144.5,-9.55,-38.67,-38.97,0,*50
1484863455.94,16415,4.56,74144.5,-9.57,-38.85,-39.15,0,*54
1484863457.22,16416,4.56,74148.0,-9.57,-38.79,-39.03,0,*53
1484863458.45,16417,4.56,74146.8,-9.55,-38.85,-39.23,0,*51
1484863459.73,16418,4.56,74146.3,-9.57,-39.15,-39.41,0,*50
1484863460.98,16419,4.56,74144.8,-9.57,-38.85,-39.23,0,*5D
1484863462.25,16420,4.56,74150.3,-9.57,-39.03,-39.23,0,*58
1484863463.51,16421,4.56,74146.3,-9.57,-38.85,-39.23,0,*56
1484863464.79,16422,4.56,74146.0,-9.57,-39.15,-39.53,0,*5A
1484863466.04,16423,4.56,74150.3,-9.59,-39.03,-39.29,0,*5F
1484863467.32,16424,4.56,74150.5,-9.57,-38.79,-39.15,0,*55
1484863468.56,16425,4.56,74146.5,-9.57,-38.97,-39.15,0,*54
1484863469.84,16426,4.56,74148.0,-9.57,-39.03,-39.23,0,*5E
1484863471.1,16427,4.56,74148.8,-9.57,-38.85,-39.15,0,*55
1484863472.32,16428,4.56,74148.8,-9.55,-38.67,-38.85,0,*5C
1484863473.59,16429,4.56,74148.8,-9.57,-38.67,-39.03,0,*50
1484863474.85,16430,4.56,74146.3,-9.57,-38.85,-39.15,0,*53
1484863476.1,16431,4.56,74148.8,-9.57,-38.85,-39.23,0,*57
1484863477.35,16432,4.56,74144.3,-9.59,-38.67,-39.03,0,*54
1484863478.6,16433,4.56,74148.8,-9.57,-38.61,-38.79,0,*51
1484863479.87,16434,4.56,74146.8,-9.57,-38.67,-39.03,0,*5C
1484863481.13,16435,4.56,74144.5,-9.57,-38.85,-39.15,0,*56
1484863482.41,16436,4.56,74152.5,-9.57,-38.79,-39.03,0,*51
1484863483.68,16437,4.56,74150.8,-9.57,-38.67,-39.03,0,*5F
1484863484.9,16438,4.56,74146.0,-9.55,-38.67,-38.97,0,*5E
1484863486.15,16439,4.56,74144.5,-9.57,-38.85,-39.03,0,*5D
1484863487.38,16440,4.56,74146.8,-9.55,-38.97,-39.15,0,*55
1484863488.65,16441,4.56,74150.5,-9.57,-39.23,-39.53,0,*5A
1484863489.87,16442,4.56,74148.5,-9.55,-39.03,-39.35,0,*59
1484863491.11,16443,4.56,74146.5,-9.57,-39.03,-39.35,0,*5A
1484863492.36,16444,4.56,74148.0,-9.57,-38.67,-38.97,0,*57
1484863493.58,16445,4.56,74146.8,-9.55,-38.67,-38.97,0,*54
1484863494.81,16446,4.56,74148.3,-9.57,-38.61,-38.97,0,*53
1484863496.04,16447,4.56,74148.8,-9.55,-38.85,-39.03,0,*56
1484863497.28,16448,4.56,74150.8,-9.57,-38.97,-39.23,0,*5A
1484863498.54,16449,4.56,74148.3,-9.57,-38.85,-39.23,0,*58
1484863499.78,16450,4.56,74146.5,-9.57,-39.03,-39.35,0,*58
1484863501.03,16451,4.56,74146.0,-9.57,-39.03,-39.35,0,*59
1484863502.28,16452,4.56,74146.0,-9.55,-38.79,-39.23,0,*53
1484863503.55,16453,4.56,74148.8,-9.57,-39.03,-39.41,0,*58
1484863504.78,16454,4.56,74146.8,-9.55,-38.85,-39.23,0,*56
1484863506.06,16455,4.56,74150.0,-9.57,-38.79,-39.03,0,*54
1484863507.29,16456,4.56,74150.3,-9.57,-38.61,-38.97,0,*52
1484863508.51,16457,4.56,74148.3,-9.57,-38.61,-38.97,0,*53
1484863509.8,16458,4.56,74150.5,-9.57,-38.49,-38.79,0,*56
1484863511.03,16459,4.56,74144.3,-9.55,-38.49,-38.85,0,*56
1484863512.28,16460,4.56,74146.8,-9.57,-38.85,-39.03,0,*51
1484863513.49,16461,4.56,74150.0,-9.55,-38.61,-38.97,0,*54
1484863514.76,16462,4.56,74144.5,-9.57,-38.79,-39.03,0,*50
1484863516.02,16463,4.56,74150.5,-9.55,-38.79,-39.15,0,*54
1484863517.27,16464,4.56,74150.0,-9.55,-38.67,-39.03,0,*5B
1484863518.47,16465,4.56,74150.0,-9.55,-38.61,-38.85,0,*53
1484863519.72,16466,4.56,74148.5,-9.55,-38.67,-39.03,0,*59
1484863520.95,16467,4.56,74148.8,-9.55,-38.85,-39.15,0,*53
1484863522.17,16468,4.56,74148.8,-9.55,-38.97,-39.23,0,*5A
1484863523.38,16469,4.56,74148.3,-9.55,-38.61,-38.85,0,*5F
1484863524.6,16470,4.56,74150.8,-9.57,-38.61,-38.97,0,*56
1484863525.83,16471,4.56,74148.8,-9.55,-38.67,-38.97,0,*53
1484863527.03,16472,4.56,74148.8,-9.55,-38.61,-38.85,0,*55
1484863528.28,16473,4.56,74148.3,-9.55,-38.67,-39.03,0,*5D
1484863529.53,16474,4.56,74150.0,-9.55,-38.79,-39.03,0,*55
1484863530.79,16475,4.56,74148.8,-9.55,-38.79,-39.15,0,*53
1484863532.01,16476,4.56,74148.8,-9.55,-38.67,-38.97,0,*54
1484863533.24,16477,4.56,74148.8,-9.55,-38.61,-38.79,0,*53
1484863534.45,16478,4.56,74148.5,-9.55,-38.61,-38.85,0,*5F
1484863535.67,16479,4.56,74152.0,-9.55,-38.67,-38.97,0,*5B
1484863536.92,16480,4.56,74152.8,-9.55,-38.79,-39.03,0,*5E
1484863538.13,16481,4.56,74154.3,-9.55,-38.61,-38.85,0,*59
1484863539.38,16482,4.56,74150.0,-9.55,-39.03,-39.23,0,*52
1484863540.66,16483,4.56,74146.3,-9.53,-38.91,-39.15,0,*5A
1484863541.94,16484,4.56,74150.3,-9.53,-38.91,-39.15,0,*5D
1484863543.19,16485,4.56,74148.8,-9.55,-38.79,-39.03,0,*5B
1484863544.41,16486,4.56,74150.3,-9.55,-38.97,-39.23,0,*5A
1484863545.63,16487,4.56,74144.3,-9.55,-38.97,-39.23,0,*5B
1484863546.86,16488,4.56,74150.0,-9.55,-38.85,-39.15,0,*52
1484863548.12,16489,4.56,74148.3,-9.53,-38.61,-38.91,0,*52
1484863549.38,16490,4.56,74148.3,-9.53,-38.79,-39.09,0,*53
1484863550.61,16491,4.56,74152.0,-9.53,-38.97,-39.09,0,*52
1484863551.86,16492,4.56,74148.8,-9.53,-38.97,-39.29,0,*53
1484863553.09,16493,4.56,74146.0,-9.53,-38.61,-38.97,0,*5F
1484863554.32,16494,4.56,74146.3,-9.53,-38.61,-38.97,0,*58
1484863555.54,16495,4.56,74148.0,-9.53,-38.73,-38.97,0,*5A
1484863556.74,16496,4.56,74148.3,-9.51,-38.61,-39.09,0,*5E
1484863557.97,16497,4.56,74150.0,-9.53,-38.61,-38.97,0,*5B
1484863559.2,16498,4.56,74148.0,-9.53,-38.73,-39.09,0,*51
1484863560.46,16499,4.56,74146.5,-9.53,-38.91,-39.09,0,*5C
1484863561.69,16500,4.56,74150.0,-9.53,-38.73,-38.97,0,*57
1484863562.91,16501,4.56,74150.3,-9.55,-38.67,-38.97,0,*55
1484863564.17,16502,4.56,74148.8,-9.53,-38.61,-38.91,0,*50
1484863565.37,16503,4.56,74148.0,-9.51,-38.73,-39.09,0,*50
1484863566.63,16504,4.56,74150.3,-9.53,-38.79,-39.09,0,*5F
1484863567.9,16505,4.56,74148.3,-9.53,-38.91,-39.15,0,*55
1484863569.16,16506,4.56,74150.8,-9.53,-38.91,-39.09,0,*5B
1484863570.42,16507,4.56,74148.5,-9.53,-38.79,-38.97,0,*5A
1484863571.65,16508,4.56,74150.3,-9.53,-38.61,-38.97,0,*5C
1484863572.87,16509,4.56,74148.8,-9.51,-38.73,-38.91,0,*5A
1484863574.13,16510,4.56,74148.3,-9.53,-38.79,-39.09,0,*5A
1484863575.38,16511,4.56,74148.0,-9.53,-38.97,-39.29,0,*59
1484863576.6,16512,4.56,74146.0,-9.53,-38.97,-39.35,0,*57
1484863577.82,16513,4.56,74148.0,-9.53,-39.35,-39.35,0,*5F
1484863579.1,16514,4.56,74144.8,-9.53,-39.15,-39.29,0,*57
1484863580.38,16515,4.56,74146.0,-9.53,-38.91,-39.15,0,*54
1484863581.66,16516,4.56,74144.5,-9.53,-38.91,-39.15,0,*57
1484863582.94,16517,4.56,74146.0,-9.53,-38.91,-39.15,0,*56
1484863584.19,16518,4.56,74150.0,-9.53,-38.97,-39.15,0,*5F
1484863585.45,16519,4.56,74146.0,-9.53,-38.91,-39.09,0,*55
1484863586.73,16520,4.56,74150.5,-9.53,-38.79,-39.15,0,*54
1484863587.96,16521,4.56,74148.5,-9.53,-39.09,-39.35,0,*51
1484863589.22,16522,4.56,74148.3,-9.53,-39.09,-39.29,0,*5F
1484863590.45,16523,4.56,74148.5,-9.53,-38.73,-39.09,0,*50
1484863591.67,16524,4.56,74148.3,-9.51,-38.79,-38.97,0,*59
1484863592.9,16525,4.56,74148.5,-9.51,-38.79,-38.97,0,*58
1484863594.12,16526,4.56,74150.0,-9.51,-38.91,-39.09,0,*5B
1484863595.37,16527,4.56,74150.0,-9.53,-38.97,-39.15,0,*53
1484863596.63,16528,4.56,74148.0,-9.53,-38.91,-39.09,0,*57
1484863597.86,16529,4.56,74152.8,-9.53,-38.73,-39.09,0,*5A
1484863599.11,16530,4.56,74152.0,-9.53,-38.73,-38.91,0,*52
1484863600.34,16531,4.56,74150.3,-9.51,-38.79,-38.97,0,*5D
1484863601.6,16532,4.56,74150.0,-9.53,-38.61,-38.79,0,*55
1484863602.8,16533,4.56,74148.0,-9.51,-38.73,-39.09,0,*53
1484863604.03,16534,4.56,74148.3,-9.53,-38.97,-39.09,0,*5C
1484863605.31,16535,4.56,74148.0,-9.53,-38.79,-39.15,0,*50
1484863606.59,16536,4.56,74150.5,-9.53,-38.79,-39.15,0,*53
1484863607.84,16537,4.56,74148.5,-9.51,-38.91,-39.15,0,*56
1484863609.07,16538,4.56,74146.5,-9.51,-38.79,-39.09,0,*52
1484863610.32,16539,4.56,74148.0,-9.51,-38.91,-39.15,0,*58
1484863611.54,16540,4.56,74150.8,-9.51,-38.97,-39.29,0,*5F
1484863612.79,16541,4.63,74152.5,-9.53,-38.97,-39.29,0,*5C
1484863614.04,16542,4.56,74146.5,-9.51,-38.79,-39.29,0,*5D
1484863615.31,16543,4.56,74148.5,-9.53,-38.91,-39.15,0,*57
1484863616.51,16544,4.56,74146.8,-9.51,-38.73,-39.09,0,*53
1484863617.76,16545,4.56,74150.8,-9.51,-38.91,-39.15,0,*53
1484863619.01,16546,4.56,74148.8,-9.51,-38.91,-39.29,0,*5F
1484863620.26,16547,4.56,74148.8,-9.53,-38.73,-39.15,0,*5F
1484863621.48,16548,4.56,74146.8,-9.51,-38.97,-39.15,0,*58
1484863622.73,16549,4.56,74144.0,-9.51,-38.91,-39.15,0,*5F
1484863623.99,16550,4.56,74148.5,-9.51,-38.79,-39.15,0,*51
1484863625.21,16551,4.56,74148.8,-9.51,-38.91,-39.09,0,*5B
1484863626.47,16552,4.56,74150.3,-9.51,-38.79,-39.15,0,*53
1484863627.72,16553,4.56,74150.5,-9.49,-38.85,-39.03,0,*5F
1484863628.97,16554,4.56,74144.3,-9.51,-38.79,-39.15,0,*55
1484863630.19,16555,4.56,74150.8,-9.51,-38.97,-39.29,0,*5B
1484863631.44,16556,4.56,74146.3,-9.51,-38.79,-39.15,0,*57
1484863632.64,16557,4.56,74148.5,-9.51,-38.73,-39.09,0,*51
1484863633.91,16558,4.56,74148.3,-9.49,-38.91,-39.23,0,*53
1484863635.17,16559,4.56,74146.8,-9.49,-39.09,-39.29,0,*58
1484863636.4,16560,4.56,74148.8,-9.53,-39.09,-39.35,0,*54
1484863637.64,16561,4.56,74148.0,-9.51,-38.91,-39.15,0,*55
1484863638.9,16562,4.56,74148.0,-9.51,-38.79,-39.15,0,*50
1484863640.15,16563,4.56,74148.0,-9.51,-38.79,-39.15,0,*51
1484863641.38,16564,4.56,74144.5,-9.51,-39.09,-39.29,0,*5F
1484863642.63,16565,4.56,74150.3,-9.51,-38.91,-39.15,0,*51
1484863643.85,16566,4.56,74150.0,-9.51,-38.61,-38.91,0,*50
1484863645.05,16567,4.56,74150.5,-9.51,-38.73,-39.09,0,*52
1484863646.3,16568,4.56,74148.8,-9.51,-38.91,-39.15,0,*5C
1484863647.53,16569,4.56,74150.5,-9.53,-39.09,-39.35,0,*5D
1484863648.82,16570,4.56,74148.5,-9.53,-39.15,-39.29,0,*55
1484863650.07,16571,4.56,74148.0,-9.53,-39.15,-39.35,0,*59
1484863651.33,16572,4.56,74148.5,-9.51,-39.15,-39.59,0,*52
1484863652.56,16573,4.56,74146.8,-9.51,-39.47,-39.71,0,*5E
1484863653.84,16574,4.56,74148.3,-9.53,-39.15,-39.29,0,*51
1484863655.07,16575,4.56,74146.5,-9.53,-39.09,-39.35,0,*50
1484863656.32,16576,4.56,74144.8,-9.53,-38.97,-39.15,0,*57
1484863657.51,16577,4.56,74150.3,-9.51,-38.97,-39.35,0,*56
1484863658.76,16578,4.56,74150.3,-9.53,-39.15,-39.47,0,*55
1484863659.99,16579,4.56,74148.3,-9.53,-39.09,-39.35,0,*5C
1484863661.21,16580,4.56,74150.0,-9.51,-39.15,-39.35,0,*55
1484863662.47,16581,4.56,74146.8,-9.53,-39.15,-39.47,0,*53
1484863663.75,16582,4.63,74152.3,-9.53,-39.15,-39.53,0,*55
1484863664.98,16583,4.56,74148.3,-9.53,-39.09,-39.35,0,*59
1484863666.22,16584,4.56,74150.8,-9.53,-38.97,-39.29,0,*55
1484863667.47,16585,4.56,74152.0,-9.53,-38.97,-39.29,0,*54
1484863668.7,16586,4.56,74150.0,-9.53,-38.73,-39.09,0,*5F
1484863669.93,16587,4.56,74148.8,-9.51,-38.61,-38.79,0,*59
1484863671.16,16588,4.56,74144.8,-9.51,-38.79,-39.09,0,*59
1484863672.39,16589,4.56,74148.8,-9.51,-38.91,-39.09,0,*5E
1484863673.63,16590,4.56,74152.8,-9.51,-38.91,-39.15,0,*5B
1484863674.91,16591,4.56,74150.3,-9.53,-38.91,-39.29,0,*57
1484863676.17,16592,4.56,74148.3,-9.53,-39.09,-39.29,0,*54
1484863677.4,16593,4.56,74150.3,-9.51,-39.09,-39.29,0,*57
1484863678.68,16594,4.56,74144.5,-9.53,-38.91,-39.15,0,*5D
1484863679.93,16595,4.56,74150.5,-9.53,-38.97,-39.15,0,*5A
1484863681.16,16596,4.56,74150.3,-9.53,-39.09,-39.35,0,*5D
1484863682.35,16597,4.56,74150.3,-9.51,-39.09,-39.35,0,*5E
1484863683.57,16598,4.56,74150.5,-9.51,-38.97,-39.15,0,*55
1484863684.82,16599,4.56,74148.3,-9.51,-38.91,-39.29,0,*5D
1484863686.07,16600,4.56,74148.5,-9.51,-38.91,-39.15,0,*51
1484863687.35,16601,4.56,74148.8,-9.53,-38.91,-39.15,0,*52
1484863688.61,16602,4.56,74148.3,-9.53,-38.79,-39.09,0,*5A
1484863689.86,16603,4.56,74146.0,-9.53,-38.97,-39.15,0,*56
1484863691.08,16604,4.56,74150.0,-9.53,-38.97,-39.35,0,*53
1484863692.27,16605,4.56,74148.0,-9.51,-39.09,-39.35,0,*56
1484863693.55,16606,4.56,74148.5,-9.53,-38.91,-39.15,0,*55
1484863694.81,16607,4.56,74146.8,-9.53,-39.09,-39.29,0,*5B
1484863696.04,16608,4.56,74146.8,-9.53,-38.73,-39.09,0,*5A
1484863697.3,16609,4.56,74150.0,-9.53,-39.09,-39.29,0,*55
1484863698.58,16610,4.56,74146.8,-9.53,-38.91,-39.15,0,*52
1484863699.83,16611,4.56,74148.3,-9.53,-38.97,-39.29,0,*5A
1484863701.07,16612,4.56,74150.8,-9.53,-38.97,-39.29,0,*59
1484863702.3,16613,4.56,74144.5,-9.53,-39.09,-39.47,0,*56
1484863703.56,16614,4.56,74144.3,-9.53,-39.15,-39.47,0,*5C
1484863704.82,16615,4.56,74144.5,-9.53,-38.79,-39.09,0,*5C
1484863706.1,16616,4.56,74148.0,-9.53,-38.91,-39.15,0,*54
1484863707.35,16617,4.56,74150.8,-9.53,-38.73,-39.15,0,*59